EHI
0 0 1 2 2 3 3 3 3 3 3 2 1 0 0 0 0 0 0 0 1 3 4 3 1 0 0 0 0 0 1 1 1 0 0 0 0 1 1 1 0 0 0
0 0 2 2 1 1 2 2 3 3 3 1 0 0 0 0 0 0 0 0 2 3 4 4 1 0 0 0 0 1 2 2 1 0 0 0 0 0 0 0 0 0 0
0 0 1 1 1 0 0 1 1 2 2 1 0 0 0 0 0 0 0 0 1 2 3 2 1 0 0 0 0 2 4 4 2 1 0 0 0 0 0 0 0 0 1
0 0 0 0 0 0 0 0 1 1 1 0 0 0 0 0 0 0 0 0 0 1 1 1 0 1 1 1 1 2 3 3 2 1 0 0 0 0 0 0 0 1 2
0 0 0 0 0 0 0 1 1 0 0 0 0 0 0 0 0 0 0 0 0 0 0 0 0 1 1 1 1 2 2 1 1 1 0 0 0 0 0 0 0 1 2
0 0 0 0 0 0 0 0 0 0 0 0 0 0 0 0 0 0 0 0 0 0 0 0 0 0 0 0 1 1 1 0 0 0 0 0 0 0 0 0 0 0 1
0 0 0 0 0 0 0 0 0 0 0 0 0 0 0 0 0 0 0 0 0 0 0 0 0 0 0 0 0 0 1 1 0 0 0 0 0 0 0 0 0 0 0
0 0 0 0 0 0 0 0 0 0 0 0 0 0 0 0 0 0 0 0 0 0 0 0 0 0 0 0 0 0 1 1 1 0 0 0 0 0 0 0 0 0 0
0 0 0 0 0 0 0 0 0 0 0 0 0 0 0 0 0 0 0 0 0 0 0 0 0 0 0 0 0 0 1 2 2 0 0 0 0 0 0 0 0 0 0
0 0 0 0 0 0 0 0 0 0 0 0 0 0 0 0 0 0 0 0 0 0 0 0 0 0 0 0 0 0 1 1 1 0 0 0 0 0 0 0 0 0 0
0 0 0 0 0 0 0 0 0 0 0 0 0 0 0 0 0 0 0 0 0 0 0 0 0 0 0 0 0 0 0 0 0 0 0 0 0 0 0 0 0 0 0
0 0 0 0 0 0 0 0 0 0 0 0 0 0 0 0 0 0 0 0 0 0 0 0 0 0 0 0 0 0 0 0 0 0 0 0 0 1 0 0 0 0 0
0 0 0 0 0 0 0 0 0 0 0 0 0 0 0 0 0 0 0 0 0 0 0 0 0 0 0 0 0 0 0 0 0 0 0 0 0 0 0 0 0 0 0
0 0 0 0 0 0 0 0 0 0 0 0 0 0 0 0 0 0 0 0 0 0 0 0 0 0 0 0 0 0 0 0 0 0 0 0 0 0 0 0 0 0 0
0 0 0 0 0 0 0 0 0 0 0 0 0 0 0 0 0 0 0 0 0 0 0 0 0 0 0 0 0 0 0 0 0 0 0 0 0 0 0 0 0 0 0
0 0 0 0 0 0 0 0 0 0 0 0 0 0 0 0 0 0 0 0 0 0 0 0 0 0 0 0 0 0 0 0 0 0 0 0 0 0 0 0 0 0 0
0 0 0 0 0 0 0 0 0 0 0 0 0 0 0 0 0 0 0 0 0 0 0 0 0 0 0 0 0 0 0 0 0 0 0 0 0 0 0 0 0 0 0
0 0 0 0 0 0 0 0 0 0 0 0 0 0 0 0 0 0 0 0 0 0 0 0 0 0 0 0 0 0 0 0 0 0 0 0 0 0 0 0 0 0 0
0 0 0 0 0 0 0 0 0 0 0 0 0 0 0 0 0 0 0 0 0 0 0 0 0 0 0 0 0 0 0 0 0 0 0 0 0 0 0 0 0 0 0
0 0 0 0 0 0 0 0 0 0 0 0 0 0 0 0 0 0 0 0 0 0 0 0 0 0 0 0 0 0 0 0 0 0 0 0 0 0 0 0 0 0 0
0 0 0 0 0 0 0 0 0 0 0 0 0 0 0 0 0 0 0 0 0 0 0 0 0 0 0 0 0 0 0 0 0 0 0 0 0 0 0 0 0 0 0
0 0 0 0 0 0 0 0 0 0 0 0 0 0 0 0 0 0 0 0 0 0 0 0 0 0 0 0 0 0 0 0 0 0 0 0 0 0 0 0 0 0 0
0 0 0 0 0 0 0 0 0 0 0 0 0 0 0 0 0 0 0 0 0 0 0 0 0 0 0 0 0 0 0 0 0 0 0 0 0 0 0 0 0 0 0
0 0 0 0 0 0 0 0 0 0 0 0 0 0 0 0 0 0 0 0 0 0 0 0 0 0 0 0 0 0 0 0 0 0 0 0 0 0 0 0 0 0 0
0 0 0 0 0 0 0 0 0 0 0 0 0 0 0 0 0 0 0 0 0 0 0 0 0 0 0 0 0 0 0 0 0 0 0 0 0 0 0 0 0 0 0
0 0 0 0 0 0 0 0 0 0 0 0 0 0 0 0 0 0 0 0 0 0 0 0 0 0 0 0 0 0 0 0 0 0 0 0 0 0 0 0 0 0 0
Wind_Speed
2 4 9 10 10 10 10 10 10 10 10 10 10 10 9 9 9 9 8 8 8 8 8 7 7 7 7 7 7 7 7 7 7 7 7 6 6 6 6 6 6 4 7
6 5 10 10 10 10 10 10 10 10 10 9 9 9 9 8 8 8 7 7 7 7 7 7 7 6 6 6 6 6 7 7 7 7 6 5 5 5 6 6 6 4 7
8 6 8 10 10 10 10 10 10 10 9 9 9 9 8 8 8 7 7 7 7 7 6 6 6 5 5 5 6 6 7 7 7 7 6 2 2 5 6 6 7 7 7
9 6 7 11 11 11 10 10 10 10 9 9 8 8 8 7 7 7 7 7 7 6 6 6 6 5 5 5 5 6 6 7 7 6 3 1 1 4 5 6 7 7 7
8 6 8 12 11 11 10 10 9 9 8 8 7 7 7 7 6 6 6 6 6 6 6 6 5 5 5 5 6 6 6 6 7 5 3 1 1 3 5 5 6 6 7
8 6 8 12 11 11 10 10 9 8 8 7 7 6 6 6 6 6 6 6 5 5 5 5 5 5 5 5 5 6 6 6 5 3 2 0 0 3 4 4 5 6 6
8 6 7 12 11 11 10 9 8 7 7 6 5 5 4 4 4 4 4 4 5 5 5 5 5 5 5 6 6 6 6 6 3 2 2 1 1 3 4 4 4 4 5
9 7 6 11 11 10 10 9 7 6 5 4 3 3 3 3 3 3 3 3 4 4 5 5 5 6 6 6 7 7 7 7 4 3 2 1 2 3 3 4 4 4 5
8 7 4 5 7 9 9 8 7 5 4 2 1 1 2 2 2 2 3 3 3 4 5 5 6 7 7 7 8 8 8 7 3 2 2 1 2 4 4 3 4 4 4
6 6 5 4 4 4 4 7 7 5 3 1 2 3 3 3 3 3 3 3 4 5 6 6 7 8 8 8 8 8 8 6 2 2 1 2 3 3 4 3 3 3 4
6 5 5 5 4 4 3 5 5 4 2 2 3 4 4 2 2 3 4 4 5 6 7 8 9 9 9 7 8 8 6 1 1 1 1 3 4 4 4 3 3 3 3
6 6 5 5 5 4 4 2 1 1 1 1 1 2 2 2 1 1 3 5 5 6 8 9 10 9 6 3 5 6 2 2 1 1 2 4 4 4 4 4 4 4 4
6 6 6 6 5 5 2 2 1 0 0 1 1 1 2 2 2 2 2 3 4 5 4 6 6 4 3 3 2 2 1 1 0 1 2 4 4 4 4 4 4 4 4
6 6 6 6 5 3 2 2 2 1 1 1 1 2 2 2 3 2 2 2 2 2 3 3 3 4 4 4 3 2 2 1 0 1 1 3 3 4 4 5 5 5 5
6 5 6 6 5 3 2 2 2 2 2 1 2 2 3 2 2 2 2 2 3 2 3 3 4 4 4 4 3 3 2 1 1 0 1 2 2 3 3 4 5 5 5
6 6 5 5 5 4 3 3 2 2 2 2 2 3 3 3 2 3 3 3 3 3 3 3 4 3 3 3 4 3 2 1 0 0 1 1 1 2 2 4 5 5 6
7 6 7 6 5 5 4 3 3 2 3 3 2 3 3 3 3 3 3 3 3 3 3 3 4 3 4 4 4 4 2 2 1 0 0 0 1 2 2 4 4 5 6
7 7 6 7 6 5 4 4 3 3 3 2 2 3 4 4 3 3 3 2 3 3 3 3 3 3 3 3 3 3 3 2 2 1 0 0 0 1 1 2 4 4 5
8 7 6 6 6 5 5 4 4 3 3 2 2 2 3 3 3 3 2 2 3 3 3 3 3 2 3 4 3 3 3 2 2 2 1 1 0 0 0 1 2 3 4
6 6 6 6 6 5 4 3 3 3 2 2 2 2 3 3 3 3 2 3 3 3 3 3 3 3 2 3 3 3 3 3 2 2 2 1 1 1 0 0 0 1 4
5 5 6 6 4 4 3 3 2 1 1 1 1 1 2 2 3 3 2 3 3 2 3 3 3 4 3 3 3 3 4 3 4 3 3 2 2 1 1 0 0 0 1
5 5 5 6 5 4 3 2 2 2 1 0 1 1 1 1 1 2 2 2 2 2 4 4 3 3 3 3 2 2 4 5 4 4 3 3 2 2 2 1 0 0 0
5 5 6 5 5 4 4 3 3 3 3 2 2 1 1 1 0 1 2 2 2 1 2 3 2 3 2 3 2 2 2 1 3 4 4 3 3 2 2 1 1 0 1
4 4 5 5 5 4 4 4 3 2 0 1 1 1 2 1 1 1 1 1 1 1 1 2 2 1 2 2 2 2 1 2 0 2 3 3 4 3 2 2 1 1 0
4 5 5 5 5 4 4 4 4 2 1 1 1 1 2 2 2 1 1 1 1 1 1 2 2 2 1 1 1 1 2 2 1 1 2 4 3 3 2 2 1 1 0
4 5 5 5 4 3 4 3 3 2 1 1 1 1 2 2 2 2 1 0 0 0 1 1 1 1 1 1 1 1 1 1 0 1 1 2 2 3 3 2 1 1 0
Wind_Direction
126 130 119 111 107 104 103 100 97 92 89 87 84 81 78 76 72 70 68 65 65 64 60 56 54 52 49 44 38 35 31 27 21 18 20 28 35 38 40 45 45 42 51
137 125 117 112 109 104 101 98 95 92 87 85 83 80 77 74 70 67 64 61 59 56 52 48 46 42 39 36 29 23 19 15 10 9 14 28 35 43 50 55 52 56 54
124 118 115 114 111 107 103 99 95 92 88 85 82 78 74 70 66 61 59 56 53 48 43 38 33 31 28 24 19 13 11 7 2 7 14 21 42 66 68 63 57 56 56
126 122 119 116 111 107 104 100 97 93 90 86 81 77 73 69 64 58 52 47 44 39 34 30 25 22 15 13 9 3 2 358 358 4 6 4 41 82 75 68 62 58 56
123 119 124 119 116 112 107 103 99 96 91 86 80 75 69 65 60 55 48 41 36 32 28 25 18 13 7 5 1 356 353 351 354 1 359 25 42 98 87 75 69 63 62
124 125 131 126 124 119 114 109 104 98 91 85 80 74 68 61 56 52 46 38 34 28 23 17 11 6 359 353 349 346 344 344 352 348 344 333 200 116 97 85 78 72 67
131 132 137 134 131 127 122 117 111 105 98 89 79 71 64 53 46 43 36 30 25 19 14 5 356 349 344 340 336 334 333 334 346 341 333 292 209 139 110 92 83 83 77
141 142 143 143 140 135 131 127 123 117 109 99 84 64 48 36 22 15 8 8 11 7 360 349 339 336 332 328 325 323 323 326 333 335 317 273 208 155 126 101 90 89 84
144 144 149 151 148 148 145 144 143 140 134 128 111 6 4 350 337 332 331 343 354 355 348 339 330 323 318 315 312 311 311 316 325 303 293 270 204 156 139 118 99 95 88
148 153 160 164 162 159 161 163 164 167 170 205 286 317 334 329 307 289 300 309 332 345 344 336 329 323 316 311 308 305 306 314 318 297 279 250 213 163 148 136 122 114 104
160 170 170 172 177 178 187 193 183 192 211 263 312 320 344 345 327 298 284 296 322 339 342 338 337 337 330 320 317 310 314 312 294 283 249 240 206 172 157 153 141 129 120
172 181 180 180 188 194 203 186 205 244 285 298 307 330 1 7 352 355 312 325 340 348 349 347 346 345 342 326 320 324 324 308 283 263 241 230 205 177 164 161 148 138 130
173 174 177 180 185 186 192 174 182 256 309 317 343 16 40 41 29 22 12 1 360 5 356 348 355 348 341 334 325 333 332 327 297 267 250 218 202 184 168 167 155 145 136
156 163 167 167 166 173 164 158 151 146 133 71 44 54 56 47 37 28 26 8 4 357 352 348 346 344 342 340 343 347 348 345 265 259 249 217 210 196 181 173 163 154 146
155 160 160 151 149 150 134 130 125 131 121 103 67 60 72 65 46 33 20 13 3 359 1 354 351 353 351 346 351 0 352 330 285 260 266 232 212 209 195 185 173 164 156
161 157 147 141 144 129 118 119 117 118 108 84 65 65 71 74 64 47 29 15 2 352 356 2 360 356 346 348 353 353 345 343 337 330 247 262 242 233 217 194 184 173 164
163 152 146 143 133 122 118 116 109 110 105 86 73 67 68 69 65 56 35 16 355 352 3 9 3 3 3 1 355 346 347 349 335 305 253 235 282 272 237 202 192 180 170
158 153 153 140 130 123 115 107 102 101 99 90 78 65 60 62 63 55 36 9 355 5 8 6 7 1 359 357 347 340 352 357 345 331 345 230 250 307 279 217 192 188 183
159 152 144 133 129 122 111 101 96 92 91 92 81 69 59 56 58 56 37 3 5 13 8 359 11 5 354 348 339 350 0 6 354 2 5 359 319 314 334 274 205 197 188
149 144 138 130 128 119 101 85 69 63 61 67 77 77 71 57 52 51 37 13 19 20 7 2 357 0 352 338 349 2 356 355 9 15 360 1 0 7 56 21 31 221 196
139 138 138 133 133 122 105 100 93 82 62 49 38 81 75 62 54 56 34 18 20 24 8 2 1 2 355 354 18 359 353 7 22 18 9 13 5 2 58 110 110 169 218
146 140 136 138 137 134 128 129 130 124 118 136 345 18 44 68 42 57 48 28 21 21 15 13 20 11 353 12 42 36 4 354 355 6 5 17 9 12 27 32 93 164 182
142 152 150 146 137 127 114 92 68 49 33 20 0 330 307 266 354 35 41 46 33 38 14 5 22 34 4 353 40 88 78 334 322 338 357 6 3 11 6 4 27 321 176
152 145 139 136 127 120 111 107 110 110 121 252 256 272 295 293 284 321 18 41 39 29 7 355 37 36 43 5 354 25 129 174 81 336 335 348 355 1 2 7 9 354 60
119 124 127 125 120 119 114 118 115 113 200 280 306 317 314 316 303 288 314 24 21 7 352 360 13 30 48 47 7 355 15 33 68 111 323 330 342 340 341 339 350 351 357
95 107 113 116 113 116 116 118 123 126 120 23 359 343 320 316 313 296 276 298 300 299 322 336 358 20 20 35 36 44 65 45 337 113 264 307 319 316 327 331 337 329 319